N1OTX Weather Reports


time (UTC)temp
C
wind
direction
speed
KPH
gust
KPH
rain 1hr
cm
rain 24hr
cm
rain mn
cm
humidity
%
barometer
mb
20260831170519 24 232 3.2 6.4 0.00 0.00 0.00 49 1019.6
20260831170019 24 119 1.6 3.2 0.00 0.00 0.00 49 1019.6
20260831165520 24 73 1.6 4.8 0.00 0.00 0.00 43 1019.7
20260831165040 24 353 1.6 4.8 0.00 0.00 0.00 49 1019.8
20260831164520 24 62 0.0 1.6 0.00 0.00 0.00 47 1019.8
20260831164020 23 112 0.0 1.6 0.00 0.00 0.00 48 1019.8
20260831163520 24 87 0.0 1.6 0.00 0.00 0.00 47 1019.7
20260831163019 23 357 0.0 3.2 0.00 0.00 0.00 50 1019.8
20260831162519 23 55 1.6 4.8 0.00 0.00 0.00 45 1020.0
20260831162039 23 65 1.6 4.8 0.00 0.00 0.00 46 1020.0
20260831161521 23 314 0.0 3.2 0.00 0.00 0.00 47 1020.0
20260831161020 24 308 1.6 3.2 0.00 0.00 0.00 44 1020.0
20260831160521 24 34 1.6 4.8 0.00 0.00 0.00 47 1020.1
20260831160020 24 245 1.6 4.8 0.00 0.00 0.00 48 1020.2
20260831155520 23 217 1.6 4.8 0.00 0.00 0.00 47 1020.2
20260831155019 23 253 1.6 4.8 0.00 0.00 0.00 49 1020.2
20260831154519 23 93 3.2 12.9 0.00 0.00 0.00 47 1020.2
20260831154019 23 92 4.8 12.9 0.00 0.00 0.00 49 1020.3
20260831153519 23 119 3.2 4.8 0.00 0.00 0.00 54 1020.3
20260831153021 23 240 1.6 1.6 0.00 0.00 0.00 52 1020.4
20260831152520 23 140 1.6 6.4 0.00 0.00 0.00 52 1020.4
20260831152020 23 115 4.8 12.9 0.00 0.00 0.00 50 1020.5
20260831151520 23 89 3.2 6.4 0.00 0.00 0.00 52 1020.5
20260831151020 23 51 1.6 6.4 0.00 0.00 0.00 51 1020.5
20260831150520 23 150 1.6 6.4 0.00 0.00 0.00 50 1020.3
20260831150019 23 150 3.2 6.4 0.00 0.00 0.00 52 1020.5
20260831145519 22 174 1.6 4.8 0.00 0.00 0.00 58 1020.5
20260831145019 22 160 1.6 1.6 0.00 0.00 0.00 53 1020.4
20260831144521 22 160 1.6 3.2 0.00 0.00 0.00 53 1020.6
20260831144020 22 93 1.6 4.8 0.00 0.00 0.00 52 1020.7
20260831143540 22 75 0.0 4.8 0.00 0.00 0.00 51 1020.7
20260831143100 22 66 1.6 4.8 0.00 0.00 0.00 56 1020.7
20260831142520 22 140 0.0 3.2 0.00 0.00 0.00 50 1020.5
20260831142020 22 158 1.6 6.4 0.00 0.00 0.00 50 1020.5
20260831141519 22 114 3.2 6.4 0.00 0.00 0.00 51 1020.4
20260831141024 22 130 1.6 6.4 0.00 0.00 0.00 55 1020.4
20260831140519 22 124 3.2 9.7 0.00 0.00 0.00 54 1020.4
20260831140021 22 108 3.2 9.7 0.00 0.00 0.00 56 1020.4
20260831135520 22 94 3.2 9.7 0.00 0.00 0.00 51 1020.5
20260831135020 22 112 1.6 6.4 0.00 0.00 0.00 56 1020.6
20260831134520 21 94 3.2 9.7 0.00 0.00 0.00 56 1020.4
20260831134059 21 118 4.8 11.3 0.00 0.00 0.00 58 1020.5
20260831133519 21 128 1.6 4.8 0.00 0.00 0.00 63 1020.4
20260831133019 21 92 1.6 3.2 0.00 0.00 0.00 62 1020.4
20260831132520 21 343 0.0 3.2 0.00 0.00 0.00 60 1020.4
20260831132019 21 82 0.0 3.2 0.00 0.00 0.00 62 1020.4
20260831131520 20 85 1.6 3.2 0.00 0.00 0.00 61 1020.4
20260831131020 20 90 3.2 9.7 0.00 0.00 0.00 63 1020.5
20260831130520 20 86 3.2 6.4 0.00 0.00 0.00 63 1020.4
20260831130020 20 75 3.2 6.4 0.00 0.00 0.00 65 1020.3
20260831125520 20 10 0.0 3.2 0.00 0.00 0.00 66 1020.3
20260831125100 20 15 0.0 3.2 0.00 0.00 0.00 64 1020.4
20260831124519 20 67 3.2 6.4 0.00 0.00 0.00 64 1020.5
20260831124019 20 101 3.2 11.3 0.00 0.00 0.00 66 1020.5
20260831123519 20 111 3.2 6.4 0.00 0.00 0.00 68 1020.4
20260831123021 20 110 4.8 12.9 0.00 0.00 0.00 68 1020.2
20260831122520 19 82 3.2 11.3 0.00 0.00 0.00 71 1020.3
20260831122040 19 53 1.6 4.8 0.00 0.00 0.00 75 1020.2
20260831121520 18 11 0.0 3.2 0.00 0.00 0.00 76 1020.2
20260831121020 18 52 0.0 3.2 0.00 0.00 0.00 76 1020.2
20260831120519 18 12 0.0 1.6 0.00 0.00 0.00 78 1020.2
20260831120019 18 45 0.0 1.6 0.00 0.00 0.00 79 1020.1
20260831115519 18 68 0.0 1.6 0.00 0.00 0.00 81 1020.0
20260831115019 18 68 0.0 1.6 0.00 0.00 0.00 82 1019.9
20260831114520 18 68 0.0 1.6 0.00 0.00 0.00 83 1020.0
20260831114020 18 81 0.0 3.2 0.00 0.00 0.00 85 1019.9
20260831113520 17 167 0.0 1.6 0.00 0.00 0.00 89 1019.9
20260831113021 17 167 1.6 1.6 0.00 0.00 0.00 93 1019.9
20260831112520 16 0.0 0.0 0.00 0.00 0.00 96 1019.7
20260831112019 15 0.0 0.0 0.00 0.00 0.00 97 1019.8
20260831111519 15 0.0 0.0 0.00 0.00 0.00 99 1019.8
20260831111019 15 0.0 0.0 0.00 0.00 0.00 99 1019.6
20260831110539 15 0.0 0.0 0.00 0.00 0.00 99 1019.7
20260831110020 14 0.0 0.0 0.00 0.00 0.00 98 1019.6
20260831105520 14 0.0 0.0 0.00 0.00 0.00 98 1019.5
20260831105040 14 0.0 0.0 0.00 0.00 0.00 98 1019.6
20260831104520 14 0.0 0.0 0.00 0.00 0.00 98 1019.5
20260831104019 14 0.0 0.0 0.00 0.00 0.00 98 1019.6
20260831103519 14 0.0 0.0 0.00 0.00 0.00 98 1019.6
20260831103019 14 0.0 0.0 0.00 0.00 0.00 98 1019.3
20260831102519 14 0.0 0.0 0.00 0.00 0.00 98 1019.4
20260831102018 14 0.0 0.0 0.00 0.00 0.00 97 1019.3
20260831101520 14 0.0 0.0 0.00 0.00 0.00 97 1019.2
20260831101020 14 0.0 0.0 0.00 0.00 0.00 97 1019.2
20260831100520 15 0.0 0.0 0.00 0.00 0.00 97 1019.1
20260831100019 15 0.0 0.0 0.00 0.00 0.00 98 1019.1
20260831095519 15 0.0 0.0 0.00 0.00 0.00 97 1019.0
20260831095019 15 0.0 0.0 0.00 0.00 0.00 97 1019.0
20260831094519 15 0.0 0.0 0.00 0.00 0.00 97 1018.9
20260831094018 15 0.0 0.0 0.00 0.00 0.00 97 1018.9
20260831093601 15 0.0 0.0 0.00 0.00 0.00 97 1018.8
20260831093020 15 0.0 0.0 0.00 0.00 0.00 96 1018.7
20260831092520 15 0.0 0.0 0.00 0.00 0.00 96 1018.7
20260831092019 15 0.0 0.0 0.00 0.00 0.00 96 1018.6
20260831091520 15 0.0 0.0 0.00 0.00 0.00 96 1018.5
20260831091019 15 0.0 0.0 0.00 0.00 0.00 96 1018.5
20260831090519 15 0.0 0.0 0.00 0.00 0.00 95 1018.5
20260831090019 15 0.0 0.0 0.00 0.00 0.00 95 1018.5
20260831085521 16 0.0 0.0 0.00 0.00 0.00 95 1018.4
20260831085020 16 0.0 0.0 0.00 0.00 0.00 95 1018.1
20260831084520 16 0.0 0.0 0.00 0.00 0.00 95 1018.2
20260831084020 16 0.0 0.0 0.00 0.00 0.00 95 1018.1
20260831083520 16 0.0 0.0 0.00 0.00 0.00 95 1018.2
20260831083019 16 0.0 0.0 0.00 0.00 0.00 94 1018.2
20260831082540 16 0.0 0.0 0.00 0.00 0.00 94 1018.1
20260831082039 16 0.0 0.0 0.00 0.00 0.00 94 1018.0
20260831081521 16 0.0 0.0 0.00 0.00 0.00 93 1018.0
20260831081020 16 0.0 0.0 0.00 0.00 0.00 93 1018.0
20260831080520 16 0.0 0.0 0.00 0.00 0.00 93 1018.0
20260831080040 16 0.0 0.0 0.00 0.00 0.00 93 1017.8
20260831075520 16 0.0 0.0 0.00 0.00 0.00 92 1017.7
20260831075020 16 0.0 0.0 0.00 0.00 0.00 91 1017.7
20260831074520 16 0.0 0.0 0.00 0.00 0.00 91 1017.6
20260831074019 17 0.0 0.0 0.00 0.00 0.00 91 1017.6
20260831073519 17 0.0 0.0 0.00 0.00 0.00 91 1017.6
20260831073023 17 0.0 0.0 0.00 0.00 0.00 90 1017.6
20260831072540 17 0.0 0.0 0.00 0.00 0.00 90 1017.5
20260831072020 17 0.0 0.0 0.00 0.00 0.00 89 1017.5
20260831071520 17 0.0 0.0 0.00 0.00 0.00 89 1017.5
20260831071019 17 0.0 0.0 0.00 0.00 0.00 88 1017.6
20260831070519 17 0.0 0.0 0.00 0.00 0.00 87 1017.5
20260831070019 17 0.0 0.0 0.00 0.00 0.00 87 1017.5
20260831065519 18 0.0 0.0 0.00 0.00 0.00 86 1017.7
20260831065020 18 0.0 0.0 0.00 0.00 0.00 86 1017.7
20260831064520 18 168 0.0 1.6 0.00 0.00 0.00 86 1017.6
20260831064020 18 168 0.0 1.6 0.00 0.00 0.00 86 1017.6
20260831063520 18 0.0 0.0 0.00 0.00 0.00 87 1017.6
20260831063021 18 0.0 0.0 0.00 0.00 0.00 87 1017.6
20260831062519 18 0.0 0.0 0.00 0.00 0.00 86 1017.4
20260831062019 18 0.0 0.0 0.00 0.00 0.00 86 1017.4
20260831061521 18 0.0 0.0 0.00 0.00 0.00 85 1017.5
20260831061020 18 0.0 0.0 0.00 0.00 0.00 85 1017.4
20260831060520 18 0.0 0.0 0.00 0.00 0.00 85 1017.3
20260831060020 18 0.0 0.0 0.00 0.00 0.00 84 1017.3
20260831055519 18 0.0 0.0 0.00 0.00 0.00 84 1017.4
20260831055020 18 0.0 0.0 0.00 0.00 0.00 83 1017.2
20260831054519 18 0.0 0.0 0.00 0.00 0.00 83 1017.3
20260831054019 18 0.0 0.0 0.00 0.00 0.00 83 1017.3
20260831053519 19 0.0 0.0 0.00 0.00 0.00 82 1017.2
20260831053021 19 0.0 0.0 0.00 0.00 0.00 82 1017.1
20260831052520 19 0.0 0.0 0.00 0.00 0.00 81 1017.1
20260831052020 19 0.0 0.0 0.00 0.00 0.00 81 1017.0
20260831051520 20 0.0 0.0 0.00 0.00 0.00 80 1016.9
20260831051020 20 0.0 0.0 0.00 0.00 0.00 80 1016.9
20260831050519 20 0.0 0.0 0.00 0.00 0.00 79 1016.9
20260831050019 20 0.0 1.6 0.00 0.00 0.00 78 1017.0
20260831045519 20 168 0.0 1.6 0.00 0.00 0.00 77 1017.0
20260831045018 20 0.0 0.0 0.00 0.00 0.00 77 1016.9
20260831044519 21 168 0.0 1.6 0.00 0.00 0.00 77 1016.8
20260831044020 21 168 0.0 1.6 0.00 0.00 0.00 77 1016.7
20260831043520 21 168 0.0 1.6 0.00 0.00 0.00 78 1016.6
20260831043020 20 168 0.0 1.6 0.00 0.00 0.00 78 1016.8
20260831042520 20 168 0.0 1.6 0.00 0.00 0.00 79 1016.7
20260831042200 21 0.0 1.6 0.00 0.00 0.00 78 1016.7
20260831041519 21 0.0 0.0 0.00 0.00 0.00 78 1016.8
20260831041019 21 0.0 0.0 0.00 0.00 0.00 76 1016.7
20260831040519 21 0.0 0.0 0.00 0.00 0.00 77 1016.7
20260831040020 21 0.0 1.6 0.00 0.00 0.00 77 1016.7
20260831035520 21 168 0.0 1.6 0.00 0.00 0.00 77 1016.6
20260831035021 21 0.0 0.0 0.00 0.00 0.00 77 1016.6
20260831034520 21 0.0 0.0 0.00 0.00 0.00 77 1016.6
20260831034020 21 177 0.0 1.6 0.00 0.00 0.00 79 1016.6
20260831033519 21 184 0.0 1.6 0.00 0.00 0.00 79 1016.6
20260831033019 21 200 0.0 1.6 0.00 0.00 0.00 80 1016.6
20260831032519 21 225 0.0 1.6 0.00 0.00 0.00 80 1016.7
20260831032019 21 224 0.0 1.6 0.00 0.00 0.00 80 1016.5
20260831031541 21 224 0.0 1.6 0.00 0.00 0.00 81 1016.6
20260831031018 21 242 0.0 1.6 0.00 0.00 0.00 81 1016.6
20260831030520 21 250 0.0 1.6 0.00 0.00 0.00 80 1016.6
20260831030020 21 250 0.0 1.6 0.00 0.00 0.00 79 1016.6
20260831025520 21 252 0.0 4.8 0.00 0.00 0.00 80 1016.4
20260831025019 21 0.0 1.6 0.00 0.00 0.00 79 1016.6
20260831024519 21 0.0 1.6 0.00 0.00 0.00 79 1016.7
20260831024019 21 0.0 0.0 0.00 0.00 0.00 79 1016.5
20260831023519 21 0.0 1.6 0.00 0.00 0.00 78 1016.6
20260831023018 22 280 0.0 3.2 0.00 0.00 0.00 78 1016.5
20260831022538 22 279 0.0 3.2 0.00 0.00 0.00 76 1016.6
20260831022040 22 227 0.0 3.2 0.00 0.00 0.00 76 1016.6
20260831021520 22 148 0.0 1.6 0.00 0.00 0.00 75 1016.6
20260831021019 22 0.0 1.6 0.00 0.00 0.00 74 1016.5
20260831020519 22 158 0.0 1.6 0.00 0.00 0.00 74 1016.6
20260831020021 22 0.0 1.6 0.00 0.00 0.00 73 1016.5
20260831015521 22 234 0.0 1.6 0.00 0.00 0.00 72 1016.4
20260831015041 22 202 0.0 3.2 0.00 0.00 0.00 71 1016.4
20260831014520 22 238 1.6 3.2 0.00 0.00 0.00 71 1016.4
20260831014020 22 10 0.0 3.2 0.00 0.00 0.00 71 1016.4
20260831013601 22 282 1.6 4.8 0.00 0.00 0.00 71 1016.2
20260831013020 22 177 1.6 4.8 0.00 0.00 0.00 71 1016.2
20260831012519 22 134 1.6 6.4 0.00 0.00 0.00 70 1016.2
20260831012019 22 299 0.0 4.8 0.00 0.00 0.00 70 1016.0
20260831011521 23 293 0.0 1.6 0.00 0.00 0.00 70 1016.0
20260831011020 23 244 0.0 3.2 0.00 0.00 0.00 69 1016.1
20260831010519 23 127 0.0 3.2 0.00 0.00 0.00 69 1016.1
20260831010019 23 268 1.6 6.4 0.00 0.00 0.00 68 1016.1
20260831005519 23 194 1.6 6.4 0.00 0.00 0.00 69 1016.0
20260831005021 23 334 0.0 6.4 0.00 0.00 0.00 68 1015.9
20260831004521 23 301 1.6 4.8 0.00 0.00 0.00 67 1015.9
20260831004040 23 132 1.6 4.8 0.00 0.00 0.00 67 1015.9
20260831003540 23 226 1.6 6.4 0.00 0.00 0.00 66 1015.8
20260831003020 23 183 1.6 6.4 0.00 0.00 0.00 66 1015.8
20260831002520 23 182 1.6 9.7 0.00 0.00 0.00 66 1015.8
20260831002020 23 224 3.2 6.4 0.00 0.00 0.00 65 1015.7
20260831001539 23 187 1.6 11.3 0.00 0.00 0.00 65 1015.5
20260831001101 23 186 1.6 11.3 0.00 0.00 0.00 65 1015.7
20260831000521 23 240 1.6 4.8 0.00 0.00 0.00 64 1015.6
20260831000020 23 198 1.6 4.8 0.00 0.00 0.00 64 1015.5
20260830233019 23 144 1.6 4.8 0.00 0.00 0.00 62 1015.4
20260830232519 23 287 1.6 12.9 0.00 0.00 0.00 62 1015.3
20260830232101 24 208 3.2 12.9 0.00 0.00 0.00 61 1015.3
20260830231519 24 204 3.2 14.5 0.00 0.00 0.00 60 1015.4
20260830231020 24 205 3.2 11.3 0.00 0.00 0.00 59 1015.4
20260830230520 24 166 1.6 9.7 0.00 0.00 0.00 59 1015.5
20260830230020 24 203 3.2 11.3 0.00 0.00 0.00 58 1015.5
20260830225520 24 170 1.6 11.3 0.00 0.00 0.00 57 1015.5
20260830225019 25 185 3.2 16.1 0.00 0.00 0.00 56 1015.6
20260830224519 25 212 3.2 16.1 0.00 0.00 0.00 56 1015.6
20260830224019 25 252 1.6 3.2 0.00 0.00 0.00 56 1015.6
20260830223539 25 241 1.6 11.3 0.00 0.00 0.00 55 1015.6
20260830223020 25 201 3.2 11.3 0.00 0.00 0.00 55 1015.8
20260830222520 25 245 1.6 9.7 0.00 0.00 0.00 54 1015.8
20260830222020 25 207 3.2 16.1 0.00 0.00 0.00 54 1015.8
20260830221520 25 208 1.6 4.8 0.00 0.00 0.00 54 1015.8
20260830221019 25 159 0.0 11.3 0.00 0.00 0.00 53 1015.7
20260830220519 25 204 1.6 11.3 0.00 0.00 0.00 54 1015.8
20260830220040 25 201 3.2 9.7 0.00 0.00 0.00 53 1015.7
20260830215519 25 227 3.2 11.3 0.00 0.00 0.00 53 1015.9
20260830215021 25 299 1.6 9.7 0.00 0.00 0.00 53 1015.9
20260830214521 25 254 1.6 9.7 0.00 0.00 0.00 53 1015.8
20260830214020 25 237 1.6 9.7 0.00 0.00 0.00 51 1015.9
20260830213520 25 190 1.6 9.7 0.00 0.00 0.00 52 1016.1
20260830213040 25 234 0.0 6.4 0.00 0.00 0.00 51 1016.0
20260830212520 25 205 3.2 11.3 0.00 0.00 0.00 51 1016.1
20260830212019 25 210 1.6 11.3 0.00 0.00 0.00 52 1016.1
20260830211519 25 141 1.6 9.7 0.00 0.00 0.00 52 1016.0
20260830211019 25 202 1.6 9.7 0.00 0.00 0.00 52 1016.1
20260830210520 25 233 1.6 11.3 0.00 0.00 0.00 53 1016.0
20260830210043 25 239 1.6 11.3 0.00 0.00 0.00 53 1015.9
20260830205520 25 210 3.2 12.9 0.00 0.00 0.00 54 1015.9
20260830205020 25 242 1.6 4.8 0.00 0.00 0.00 53 1015.9
20260830204519 25 202 1.6 11.3 0.00 0.00 0.00 54 1015.8
20260830204019 25 173 1.6 9.7 0.00 0.00 0.00 53 1016.0
20260830203519 25 180 1.6 6.4 0.00 0.00 0.00 54 1016.1
20260830203020 25 244 0.0 3.2 0.00 0.00 0.00 53 1016.1
20260830202521 25 193 0.0 9.7 0.00 0.00 0.00 54 1016.2
20260830202020 25 198 1.6 9.7 0.00 0.00 0.00 52 1016.2
20260830201540 25 218 1.6 9.7 0.00 0.00 0.00 50 1016.3
20260830201020 26 138 1.6 14.5 0.00 0.00 0.00 51 1016.4
20260830200519 26 225 3.2 14.5 0.00 0.00 0.00 52 1016.5
20260830200020 26 26 1.6 3.2 0.00 0.00 0.00 52 1016.5
20260830195539 26 215 1.6 6.4 0.00 0.00 0.00 52 1016.5
20260830195021 26 223 1.6 4.8 0.00 0.00 0.00 52 1016.5
20260830194521 26 31 0.0 4.8 0.00 0.00 0.00 53 1016.7
20260830194020 26 318 1.6 9.7 0.00 0.00 0.00 51 1016.8
20260830193520 26 270 1.6 6.4 0.00 0.00 0.00 51 1016.8
20260830193040 26 216 3.2 14.5 0.00 0.00 0.00 50 1016.9
20260830192520 26 287 3.2 11.3 0.00 0.00 0.00 50 1017.0
20260830192039 26 261 1.6 9.7 0.00 0.00 0.00 48 1017.0
20260830191540 26 286 3.2 9.7 0.00 0.00 0.00 49 1017.1
20260830191019 26 302 3.2 9.7 0.00 0.00 0.00 49 1017.1
20260830190519 26 275 1.6 14.5 0.00 0.00 0.00 48 1017.3
20260830190042 26 297 1.6 12.9 0.00 0.00 0.00 48 1017.3
20260830185520 26 327 1.6 6.4 0.00 0.00 0.00 47 1017.3
20260830185020 26 322 0.0 9.7 0.00 0.00 0.00 47 1017.3
20260830184520 27 294 3.2 11.3 0.00 0.00 0.00 48 1017.3
20260830184020 27 340 1.6 4.8 0.00 0.00 0.00 46 1017.4
20260830183519 26 207 1.6 6.4 0.00 0.00 0.00 45 1017.4
20260830183019 26 317 1.6 6.4 0.00 0.00 0.00 46 1017.4
20260830182519 26 296 3.2 9.7 0.00 0.00 0.00 45 1017.4
20260830182021 26 303 1.6 9.7 0.00 0.00 0.00 46 1017.5
20260830181518 26 34 1.6 4.8 0.00 0.00 0.00 46 1017.5
20260830181020 27 298 3.2 11.3 0.00 0.00 0.00 46 1017.4
20260830180540 27 293 3.2 16.1 0.00 0.00 0.00 45 1017.5
20260830180020 27 214 3.2 14.5 0.00 0.00 0.00 45 1017.7
20260830175519 27 265 4.8 20.9 0.00 0.00 0.00 45 1017.8
20260830175019 27 320 1.6 9.7 0.00 0.00 0.00 45 1017.8
20260830174519 27 267 1.6 11.3 0.00 0.00 0.00 46 1017.9
20260830174041 27 96 3.2 11.3 0.00 0.00 0.00 47 1017.8
20260830173520 27 88 1.6 9.7 0.00 0.00 0.00 50 1017.7
20260830173040 27 49 1.6 9.7 0.00 0.00 0.00 47 1017.8
20260830172520 27 347 3.2 6.4 0.00 0.00 0.00 47 1017.9
20260830172020 27 335 3.2 6.4 0.00 0.00 0.00 47 1017.9
20260830171540 27 3 1.6 6.4 0.00 0.00 0.00 46 1017.9
20260830171019 27 53 3.2 6.4 0.00 0.00 0.00 45 1018.0